| time (UTC) | temp F | wind direction | speed MPH | gust MPH | rain 1hr in | rain 24hr in | rain mn in | humidity % | barometer mb |
| 20260504044228 | 74 | 93 | 11.0 | 23.0 | 0.01 | 0.15 | 0.15 | 82 | 1018.3 |
| 20260504043727 | 74 | 39 | 8.0 | 21.0 | 0.01 | 0.15 | 0.15 | 81 | 1018.3 |
| 20260504043228 | 74 | 30 | 7.0 | 21.0 | 0.01 | 0.15 | 0.15 | 82 | 1018.4 |
| 20260504042728 | 74 | 78 | 11.0 | 20.0 | 0.01 | 0.15 | 0.15 | 81 | 1018.2 |
| 20260504042500 | 74 | 60 | 11.0 | 17.0 | 0.01 | 0.15 | 0.15 | 80 | 1018.3 |
| 20260504041728 | 74 | 56 | 8.0 | 17.0 | 0.01 | 0.15 | 0.15 | 81 | 1017.9 |
| 20260504041227 | 74 | 53 | 11.0 | 19.0 | 0.01 | 0.15 | 0.15 | 82 | 1017.8 |
| 20260504040734 | 73 | 32 | 12.0 | 16.0 | 0.01 | 0.15 | 0.15 | 86 | 1017.9 |
| 20260504040727 | 74 | 80 | 13.0 | 19.0 | 0.01 | 0.15 | 0.15 | 84 | 1017.9 |
| 20260504035728 | 73 | 87 | 8.0 | 14.0 | 0.01 | 0.15 | 0.15 | 85 | 1017.6 |
| 20260504035227 | 73 | 352 | 8.0 | 14.0 | 0.01 | 0.15 | 0.15 | 83 | 1017.6 |
| 20260504034727 | 74 | 110 | 6.0 | 14.0 | 0.00 | 0.15 | 0.15 | 82 | 1017.4 |
| 20260504034458 | 75 | 112 | 8.0 | 15.0 | 0.00 | 0.15 | 0.15 | 82 | 1017.3 |
| 20260504033727 | 75 | 80 | 5.0 | 15.0 | 0.00 | 0.15 | 0.15 | 81 | 1017.4 |
| 20260504033227 | 75 | 127 | 5.0 | 15.0 | 0.00 | 0.15 | 0.15 | 81 | 1017.2 |
| 20260504032727 | 76 | 139 | 0.0 | 16.0 | 0.00 | 0.15 | 0.15 | 81 | 1016.9 |
| 20260504032458 | 76 | 155 | 6.0 | 16.0 | 0.00 | 0.15 | 0.15 | 81 | 1017.1 |
| 20260504031728 | 76 | 94 | 7.0 | 16.0 | 0.00 | 0.15 | 0.15 | 77 | 1017.1 |
| 20260504031458 | 76 | 54 | 5.0 | 19.0 | 0.00 | 0.15 | 0.15 | 78 | 1017.1 |
| 20260504030727 | 76 | 35 | 10.0 | 19.0 | 0.00 | 0.15 | 0.15 | 74 | 1017.5 |
| 20260504030229 | 77 | 55 | 4.0 | 19.0 | 0.00 | 0.15 | 0.15 | 77 | 1017.0 |
| 20260504025958 | 78 | 56 | 9.0 | 17.0 | 0.00 | 0.15 | 0.15 | 74 | 1017.1 |
| 20260504025446 | 78 | 105 | 5.0 | 17.0 | 0.00 | 0.15 | 0.15 | 73 | 1016.7 |
| 20260504024946 | 78 | 80 | 8.0 | 17.0 | 0.00 | 0.15 | 0.15 | 71 | 1017.0 |
| 20260504024215 | 78 | 85 | 10.0 | 15.0 | 0.00 | 0.15 | 0.15 | 72 | 1017.0 |
| 20260504023715 | 78 | 104 | 5.0 | 15.0 | 0.00 | 0.15 | 0.15 | 74 | 1016.9 |
| 20260504023448 | 78 | 96 | 12.0 | 15.0 | 0.00 | 0.15 | 0.15 | 74 | 1017.1 |
| 20260504022946 | 78 | 107 | 8.0 | 15.0 | 0.00 | 0.15 | 0.15 | 75 | 1017.1 |
| 20260504022446 | 77 | 72 | 6.0 | 19.0 | 0.00 | 0.15 | 0.15 | 76 | 1017.0 |
| 20260504021715 | 77 | 93 | 2.0 | 19.0 | 0.00 | 0.15 | 0.15 | 76 | 1017.0 |
| 20260504021215 | 77 | 104 | 7.0 | 16.0 | 0.00 | 0.15 | 0.15 | 75 | 1017.1 |
| 20260504020715 | 77 | 90 | 8.0 | 15.0 | 0.00 | 0.15 | 0.15 | 76 | 1017.2 |
| 20260504020448 | 77 | 133 | 6.0 | 15.0 | 0.00 | 0.15 | 0.15 | 76 | 1017.1 |
| 20260504015716 | 77 | 134 | 8.0 | 15.0 | 0.00 | 0.15 | 0.15 | 77 | 1017.0 |
| 20260504015217 | 77 | 82 | 8.0 | 14.0 | 0.00 | 0.15 | 0.15 | 77 | 1017.0 |
| 20260504014715 | 77 | 73 | 5.0 | 15.0 | 0.00 | 0.15 | 0.15 | 75 | 1017.2 |
| 20260504014446 | 77 | 115 | 6.0 | 15.0 | 0.00 | 0.15 | 0.15 | 74 | 1016.9 |
| 20260504013715 | 77 | 72 | 6.0 | 14.0 | 0.00 | 0.15 | 0.15 | 74 | 1017.1 |
| 20260504013221 | 77 | 102 | 6.0 | 15.0 | 0.00 | 0.15 | 0.15 | 73 | 1017.1 |
| 20260504013215 | 77 | 74 | 7.0 | 15.0 | 0.00 | 0.15 | 0.15 | 74 | 1017.1 |
| 20260504012203 | 77 | 52 | 3.0 | 13.0 | 0.00 | 0.15 | 0.15 | 74 | 1017.1 |
| 20260504011704 | 77 | 125 | 5.0 | 20.0 | 0.00 | 0.15 | 0.15 | 74 | 1017.2 |
| 20260504011203 | 77 | 109 | 11.0 | 20.0 | 0.01 | 0.15 | 0.15 | 76 | 1016.8 |
| 20260504010704 | 77 | 64 | 0.0 | 14.0 | 0.01 | 0.15 | 0.15 | 76 | 1017.1 |
| 20260504010204 | 77 | 101 | 2.0 | 14.0 | 0.01 | 0.15 | 0.15 | 75 | 1017.0 |
| 20260504005704 | 77 | 92 | 9.0 | 15.0 | 0.01 | 0.15 | 0.15 | 75 | 1016.9 |
| 20260504005204 | 77 | 95 | 9.0 | 17.0 | 0.01 | 0.15 | 0.15 | 77 | 1017.0 |
| 20260504004703 | 77 | 70 | 3.0 | 17.0 | 0.01 | 0.15 | 0.15 | 79 | 1017.0 |
| 20260504004151 | 76 | 95 | 9.0 | 16.0 | 0.01 | 0.15 | 0.15 | 82 | 1017.1 |
| 20260504003641 | 76 | 97 | 4.0 | 16.0 | 0.01 | 0.15 | 0.15 | 83 | 1017.1 |
| 20260504003127 | 75 | 38 | 9.0 | 19.0 | 0.01 | 0.15 | 0.15 | 82 | 1017.1 |
| 20260504002628 | 74 | 99 | 11.0 | 19.0 | 0.01 | 0.15 | 0.15 | 86 | 1017.1 |
| 20260504002127 | 74 | 58 | 6.0 | 19.0 | 0.01 | 0.15 | 0.15 | 87 | 1017.1 |
| 20260504001629 | 74 | 83 | 9.0 | 17.0 | 0.01 | 0.15 | 0.15 | 87 | 1017.2 |
| 20260504001127 | 75 | 100 | 10.0 | 20.0 | 0.00 | 0.14 | 0.14 | 84 | 1017.3 |
| 20260504000627 | 76 | 52 | 13.0 | 20.0 | 0.00 | 0.14 | 0.14 | 80 | 1017.3 |
| 20260504000128 | 79 | 47 | 11.0 | 20.0 | 0.00 | 0.13 | 0.13 | 75 | 1017.5 |
| 20260503235628 | 79 | 84 | 9.0 | 15.0 | 0.00 | 0.13 | 0.13 | 73 | 1017.3 |
| 20260503235359 | 78 | 131 | 1.0 | 16.0 | 0.00 | 0.13 | 0.13 | 72 | 1017.4 |
| 20260503234628 | 78 | 93 | 3.0 | 16.0 | 0.00 | 0.13 | 0.13 | 73 | 1017.4 |
| 20260503234127 | 79 | 140 | 6.0 | 15.0 | 0.00 | 0.13 | 0.13 | 73 | 1017.3 |
| 20260503233627 | 79 | 32 | 10.0 | 15.0 | 0.00 | 0.13 | 0.13 | 72 | 1017.2 |
| 20260503233127 | 79 | 69 | 9.0 | 15.0 | 0.00 | 0.13 | 0.13 | 74 | 1017.4 |
| 20260503232627 | 79 | 78 | 8.0 | 15.0 | 0.00 | 0.13 | 0.13 | 74 | 1017.3 |
| 20260503232127 | 79 | 92 | 0.0 | 15.0 | 0.00 | 0.13 | 0.13 | 75 | 1017.4 |
| 20260503231627 | 79 | 79 | 9.0 | 16.0 | 0.00 | 0.13 | 0.13 | 73 | 1017.5 |
| 20260503231128 | 78 | 38 | 6.0 | 16.0 | 0.00 | 0.13 | 0.13 | 75 | 1017.4 |
| 20260503230628 | 78 | 67 | 10.0 | 19.0 | 0.00 | 0.13 | 0.13 | 75 | 1017.3 |
| 20260503230127 | 79 | 76 | 7.0 | 19.0 | 0.00 | 0.13 | 0.13 | 74 | 1017.6 |
| 20260503225627 | 80 | 88 | 7.0 | 16.0 | 0.00 | 0.13 | 0.13 | 73 | 1017.3 |
| 20260503225133 | 79 | 112 | 6.0 | 15.0 | 0.00 | 0.13 | 0.13 | 74 | 1017.3 |
| 20260503225127 | 79 | 44 | 6.0 | 16.0 | 0.00 | 0.13 | 0.13 | 74 | 1017.6 |
| 20260503224400 | 79 | 71 | 11.0 | 15.0 | 0.00 | 0.13 | 0.13 | 73 | 1017.7 |
| 20260503223858 | 79 | 47 | 1.0 | 15.0 | 0.00 | 0.13 | 0.13 | 74 | 1017.6 |
| 20260503223128 | 79 | 104 | 8.0 | 15.0 | 0.00 | 0.13 | 0.13 | 75 | 1017.8 |
| 20260503222628 | 78 | 79 | 9.0 | 15.0 | 0.00 | 0.13 | 0.13 | 75 | 1017.7 |
| 20260503222128 | 78 | 118 | 10.0 | 15.0 | 0.00 | 0.13 | 0.13 | 74 | 1017.7 |
| 20260503221627 | 78 | 57 | 4.0 | 15.0 | 0.00 | 0.13 | 0.13 | 75 | 1017.7 |
| 20260503221127 | 79 | 91 | 9.0 | 13.0 | 0.00 | 0.13 | 0.13 | 74 | 1018.0 |
| 20260503220627 | 79 | 88 | 6.0 | 16.0 | 0.00 | 0.13 | 0.13 | 74 | 1018.0 |
| 20260503220359 | 78 | 96 | 6.0 | 16.0 | 0.00 | 0.13 | 0.13 | 75 | 1018.2 |
| 20260503215630 | 78 | 91 | 11.0 | 15.0 | 0.00 | 0.13 | 0.13 | 77 | 1018.1 |
| 20260503215127 | 78 | 100 | 9.0 | 15.0 | 0.00 | 0.13 | 0.13 | 76 | 1018.3 |
| 20260503214629 | 79 | 44 | 5.0 | 15.0 | 0.00 | 0.13 | 0.13 | 76 | 1018.2 |
| 20260503214127 | 78 | 93 | 6.0 | 19.0 | 0.00 | 0.13 | 0.13 | 77 | 1018.4 |
| 20260503213627 | 78 | 83 | 7.0 | 19.0 | 0.00 | 0.13 | 0.13 | 76 | 1018.4 |
| 20260503213128 | 78 | 68 | 5.0 | 15.0 | 0.00 | 0.13 | 0.13 | 77 | 1018.6 |
| 20260503212627 | 78 | 84 | 8.0 | 15.0 | 0.00 | 0.13 | 0.13 | 76 | 1018.5 |
| 20260503212128 | 78 | 111 | 9.0 | 15.0 | 0.00 | 0.13 | 0.13 | 78 | 1018.4 |
| 20260503211628 | 78 | 96 | 11.0 | 15.0 | 0.00 | 0.13 | 0.13 | 77 | 1018.3 |
| 20260503211128 | 78 | 69 | 6.0 | 14.0 | 0.07 | 0.13 | 0.13 | 79 | 1018.6 |
| 20260503210629 | 78 | 105 | 9.0 | 14.0 | 0.13 | 0.13 | 0.13 | 80 | 1018.5 |
| 20260503210128 | 78 | 125 | 10.0 | 16.0 | 0.13 | 0.13 | 0.13 | 82 | 1018.3 |
| 20260503205628 | 77 | 76 | 7.0 | 16.0 | 0.13 | 0.13 | 0.13 | 83 | 1018.5 |
| 20260503205130 | 76 | 19 | 11.0 | 14.0 | 0.13 | 0.13 | 0.13 | 86 | 1018.4 |
| 20260503204628 | 74 | 132 | 0.0 | 9.0 | 0.13 | 0.13 | 0.13 | 88 | 1018.5 |
| 20260503204128 | 74 | 162 | 1.0 | 9.0 | 0.13 | 0.13 | 0.13 | 89 | 1018.7 |
| 20260503203628 | 74 | 110 | 5.0 | 8.0 | 0.13 | 0.13 | 0.13 | 89 | 1018.6 |
| 20260503203127 | 73 | 180 | 0.0 | 1.0 | 0.13 | 0.13 | 0.13 | 91 | 1018.8 |
| 20260503202627 | 72 | 175 | 0.0 | 0.0 | 0.13 | 0.13 | 0.13 | 90 | 1018.5 |
| 20260503202127 | 71 | 220 | 0.0 | 8.0 | 0.13 | 0.13 | 0.13 | 89 | 1018.7 |
| 20260503201628 | 71 | 164 | 0.0 | 14.0 | 0.13 | 0.13 | 0.13 | 89 | 1018.6 |
| 20260503201129 | 71 | 168 | 5.0 | 14.0 | 0.06 | 0.06 | 0.08 | 88 | 1018.8 |
| 20260503200628 | 72 | 171 | 6.0 | 11.0 | 0.01 | 0.01 | 0.01 | 88 | 1018.8 |
| 20260503200127 | 73 | 171 | 6.0 | 13.0 | 0.00 | 0.00 | 0.00 | 87 | 1018.6 |
| 20260503195628 | 73 | 189 | 4.0 | 13.0 | 0.00 | 0.00 | 0.00 | 86 | 1018.5 |
| 20260503195130 | 74 | 186 | 5.0 | 16.0 | 0.00 | 0.00 | 0.00 | 84 | 1018.6 |
| 20260503194858 | 74 | 70 | 10.0 | 15.0 | 0.00 | 0.00 | 0.00 | 79 | 1018.8 |
| 20260503194128 | 75 | 185 | 0.0 | 15.0 | 0.00 | 0.00 | 0.00 | 79 | 1018.5 |
| 20260503193622 | 74 | 136 | 4.0 | 15.0 | 0.00 | 0.00 | 0.00 | 80 | 1018.6 |
| 20260503193111 | 74 | 138 | 10.0 | 17.0 | 0.00 | 0.00 | 0.00 | 82 | 1018.8 |
| 20260503192605 | 74 | 114 | 9.0 | 17.0 | 0.00 | 0.00 | 0.00 | 80 | 1018.8 |
| 20260503192112 | 75 | 100 | 12.0 | 17.0 | 0.00 | 0.00 | 0.00 | 78 | 1018.7 |
| 20260503192106 | 75 | 112 | 8.0 | 17.0 | 0.00 | 0.00 | 0.00 | 80 | 1018.6 |
| 20260503191105 | 75 | 94 | 6.0 | 17.0 | 0.00 | 0.00 | 0.00 | 80 | 1018.6 |
| 20260503190605 | 74 | 68 | 12.0 | 19.0 | 0.00 | 0.00 | 0.00 | 80 | 1018.6 |
| 20260503190556 | 75 | 11 | 8.0 | 20.0 | 0.00 | 0.00 | 0.00 | 81 | 1018.5 |
| 20260503185555 | 76 | 68 | 9.0 | 20.0 | 0.00 | 0.00 | 0.00 | 81 | 1018.5 |
| 20260503185041 | 76 | 92 | 10.0 | 15.0 | 0.00 | 0.00 | 0.00 | 81 | 1018.5 |
| 20260503184529 | 76 | 145 | 1.0 | 14.0 | 0.00 | 0.00 | 0.00 | 81 | 1018.7 |
| 20260503184029 | 76 | 93 | 3.0 | 14.0 | 0.00 | 0.00 | 0.00 | 80 | 1018.6 |
| 20260503183530 | 76 | 113 | 5.0 | 16.0 | 0.00 | 0.00 | 0.00 | 80 | 1018.4 |
| 20260503183030 | 76 | 115 | 5.0 | 16.0 | 0.00 | 0.00 | 0.00 | 81 | 1018.4 |
| 20260503182536 | 76 | 51 | 8.0 | 20.0 | 0.00 | 0.00 | 0.00 | 79 | 1018.3 |
| 20260503182530 | 76 | 83 | 9.0 | 20.0 | 0.00 | 0.00 | 0.00 | 80 | 1018.5 |
| 20260503181529 | 76 | 78 | 9.0 | 17.0 | 0.00 | 0.00 | 0.00 | 78 | 1018.4 |
| 20260503181250 | 77 | 85 | 10.0 | 16.0 | 0.00 | 0.00 | 0.00 | 77 | 1018.2 |
| 20260503180748 | 77 | 55 | 6.0 | 16.0 | 0.00 | 0.00 | 0.00 | 77 | 1018.3 |
| 20260503180024 | 76 | 73 | 4.0 | 16.0 | 0.00 | 0.00 | 0.00 | 79 | 1018.3 |
| 20260503180018 | 77 | 47 | 6.0 | 14.0 | 0.00 | 0.00 | 0.00 | 78 | 1018.3 |
| 20260503175018 | 76 | 83 | 8.0 | 16.0 | 0.00 | 0.00 | 0.00 | 80 | 1018.1 |
| 20260503174519 | 75 | 81 | 8.0 | 15.0 | 0.00 | 0.00 | 0.00 | 79 | 1018.1 |
| 20260503174017 | 75 | 108 | 5.0 | 15.0 | 0.00 | 0.00 | 0.00 | 80 | 1017.9 |
| 20260503173505 | 75 | 82 | 6.0 | 14.0 | 0.00 | 0.00 | 0.00 | 80 | 1018.1 |
| 20260503173005 | 75 | 39 | 6.0 | 14.0 | 0.00 | 0.00 | 0.00 | 80 | 1017.9 |
| 20260503172506 | 75 | 71 | 6.0 | 13.0 | 0.00 | 0.00 | 0.00 | 80 | 1017.8 |
| 20260503172006 | 75 | 82 | 6.0 | 14.0 | 0.00 | 0.00 | 0.00 | 80 | 1017.8 |
| 20260503171506 | 75 | 110 | 5.0 | 14.0 | 0.00 | 0.00 | 0.00 | 80 | 1017.7 |
| 20260503171006 | 75 | 47 | 8.0 | 10.0 | 0.00 | 0.00 | 0.00 | 80 | 1017.7 |
| 20260503170506 | 74 | 117 | 4.0 | 13.0 | 0.00 | 0.00 | 0.00 | 80 | 1017.6 |
| 20260503150955 | 73 | 109 | 3.0 | 10.0 | 0.00 | 0.00 | 0.00 | 81 | 1016.9 |
| 20260503150454 | 73 | 142 | 6.0 | 10.0 | 0.00 | 0.00 | 0.00 | 82 | 1017.0 |
| 20260503140212 | 73 | 102 | 5.0 | 14.0 | 0.00 | 0.00 | 0.00 | 83 | 1017.2 |
| 20260503131213 | 73 | 72 | 6.0 | 14.0 | 0.00 | 0.00 | 0.00 | 83 | 1017.0 |
| 20260503130713 | 73 | 70 | 1.0 | 10.0 | 0.00 | 0.00 | 0.00 | 83 | 1016.9 |
| 20260503110442 | 74 | 89 | 7.0 | 14.0 | 0.00 | 0.00 | 0.00 | 81 | 1017.9 |
| 20260503090441 | 74 | 103 | 8.0 | 14.0 | 0.00 | 0.00 | 0.00 | 79 | 1017.8 |
| 20260503090213 | 74 | 100 | 4.0 | 14.0 | 0.00 | 0.00 | 0.00 | 80 | 1018.1 |
| 20260503081447 | 74 | 86 | 4.0 | 14.0 | 0.00 | 0.00 | 0.00 | 78 | 1017.6 |
| 20260503081441 | 74 | 118 | 5.0 | 14.0 | 0.00 | 0.00 | 0.00 | 78 | 1017.8 |
| 20260503080442 | 75 | 96 | 10.0 | 15.0 | 0.00 | 0.00 | 0.00 | 78 | 1017.8 |
| 20260503072942 | 75 | 99 | 8.0 | 14.0 | 0.00 | 0.00 | 0.00 | 79 | 1017.5 |
| 20260503072443 | 75 | 105 | 3.0 | 14.0 | 0.00 | 0.00 | 0.00 | 78 | 1017.3 |
| 20260503071941 | 75 | 103 | 9.0 | 16.0 | 0.00 | 0.00 | 0.00 | 79 | 1017.3 |
| 20260503071442 | 75 | 26 | 4.0 | 16.0 | 0.00 | 0.00 | 0.00 | 79 | 1017.3 |
| 20260503070941 | 75 | 85 | 9.0 | 16.0 | 0.00 | 0.00 | 0.00 | 79 | 1017.1 |
| 20260503070441 | 74 | 46 | 7.0 | 16.0 | 0.00 | 0.00 | 0.00 | 78 | 1017.3 |
| 20260503054941 | 75 | 120 | 10.0 | 15.0 | 0.00 | 0.00 | 0.00 | 78 | 1016.3 |
| 20260503054447 | 75 | 77 | 6.0 | 16.0 | 0.00 | 0.00 | 0.00 | 78 | 1016.1 |
| 20260503054441 | 75 | 48 | 6.0 | 16.0 | 0.00 | 0.00 | 0.00 | 78 | 1016.4 |
| 20260503053443 | 75 | 112 | 8.0 | 16.0 | 0.00 | 0.00 | 0.00 | 77 | 1016.1 |
| 20260503052941 | 75 | 54 | 7.0 | 16.0 | 0.00 | 0.00 | 0.00 | 77 | 1015.9 |
| 20260503052712 | 75 | 76 | 8.0 | 13.0 | 0.00 | 0.00 | 0.00 | 77 | 1015.9 |
| 20260503051941 | 75 | 115 | 6.0 | 13.0 | 0.00 | 0.00 | 0.00 | 78 | 1015.8 |
| 20260503051441 | 75 | 98 | 10.0 | 15.0 | 0.00 | 0.00 | 0.00 | 77 | 1016.0 |
| 20260503050943 | 75 | 84 | 7.0 | 15.0 | 0.00 | 0.00 | 0.00 | 77 | 1015.8 |
| 20260503050441 | 75 | 104 | 9.0 | 16.0 | 0.00 | 0.00 | 0.00 | 77 | 1015.7 |
| 20260503045947 | 75 | 138 | 8.0 | 16.0 | 0.00 | 0.00 | 0.00 | 79 | 1015.6 |
| 20260503045941 | 75 | 73 | 0.0 | 16.0 | 0.00 | 0.00 | 0.00 | 79 | 1015.7 |
| 20260503044942 | 75 | 94 | 6.0 | 16.0 | 0.00 | 0.00 | 0.00 | 79 | 1015.5 |